TimeCDT,TemperatureF,Dew PointF,Humidity,Sea Level PressureIn,VisibilityMPH,Wind Direction,Wind SpeedMPH,Gust SpeedMPH,PrecipitationIn,Events,Conditions,WindDirDegrees,DateUTC
12:15 AM,62.6,53.6,72,29.95,10.0,SSE,8.1,-,N/A,,Mostly Cloudy,150,2013-09-28 05:15:00
12:35 AM,62.6,53.6,72,29.94,10.0,SE,8.1,-,N/A,,Overcast,140,2013-09-28 05:35:00
12:55 AM,60.8,53.6,77,29.94,10.0,SSE,6.9,-,N/A,,Overcast,150,2013-09-28 05:55:00
1:15 AM,62.6,53.6,72,29.93,10.0,SSE,10.4,-,N/A,,Overcast,150,2013-09-28 06:15:00
1:35 AM,62.6,53.6,72,29.93,10.0,SSE,8.1,-,N/A,,Overcast,160,2013-09-28 06:35:00
1:55 AM,62.6,53.6,72,29.92,10.0,SSE,6.9,-,N/A,,Overcast,150,2013-09-28 06:55:00
2:15 AM,62.6,53.6,72,29.92,10.0,SSE,6.9,-,N/A,,Mostly Cloudy,150,2013-09-28 07:15:00
2:35 AM,62.6,53.6,72,29.91,10.0,SSE,8.1,-,N/A,,Mostly Cloudy,150,2013-09-28 07:35:00
2:55 AM,62.6,51.8,68,29.91,10.0,SSE,9.2,-,N/A,,Mostly Cloudy,160,2013-09-28 07:55:00
3:15 AM,62.6,51.8,68,29.90,10.0,SSE,8.1,-,N/A,,Mostly Cloudy,160,2013-09-28 08:15:00
3:35 AM,62.6,51.8,68,29.90,10.0,SSE,9.2,15.0,N/A,,Overcast,150,2013-09-28 08:35:00
3:55 AM,62.6,51.8,68,29.89,-9999.0,SSE,8.1,15.0,N/A,,Mostly Cloudy,150,2013-09-28 08:55:00
4:15 AM,64.4,51.8,64,29.89,10.0,SSE,12.7,-,N/A,,Scattered Clouds,160,2013-09-28 09:15:00
4:35 AM,64.4,51.8,64,29.88,10.0,SSE,10.4,17.3,N/A,,Scattered Clouds,160,2013-09-28 09:35:00
4:55 AM,62.6,51.8,68,29.88,10.0,SSE,10.4,-,N/A,,Scattered Clouds,160,2013-09-28 09:55:00
5:15 AM,62.6,53.6,72,29.88,10.0,SSE,10.4,16.1,N/A,,Scattered Clouds,160,2013-09-28 10:15:00
5:35 AM,62.6,53.6,72,29.88,10.0,SSE,9.2,16.1,N/A,,Mostly Cloudy,150,2013-09-28 10:35:00
5:55 AM,60.8,53.6,77,29.88,10.0,SSE,9.2,-,N/A,,Mostly Cloudy,160,2013-09-28 10:55:00
6:15 AM,62.6,53.6,72,29.87,10.0,SSE,10.4,16.1,N/A,,Mostly Cloudy,150,2013-09-28 11:15:00
6:35 AM,60.8,55.4,82,29.88,10.0,SSE,8.1,15.0,N/A,,Mostly Cloudy,150,2013-09-28 11:35:00
6:55 AM,60.8,55.4,82,29.88,10.0,SE,8.1,-,N/A,,Mostly Cloudy,140,2013-09-28 11:55:00
7:15 AM,60.8,55.4,82,29.88,10.0,SE,8.1,15.0,N/A,,Partly Cloudy,140,2013-09-28 12:15:00
7:35 AM,62.6,57.2,82,29.87,10.0,SSE,9.2,15.0,N/A,,Clear,150,2013-09-28 12:35:00
7:55 AM,64.4,57.2,77,29.86,10.0,SSE,11.5,20.7,N/A,,Scattered Clouds,150,2013-09-28 12:55:00
8:15 AM,64.4,57.2,77,29.86,10.0,SSE,13.8,24.2,N/A,,Overcast,160,2013-09-28 13:15:00
8:35 AM,66.2,57.2,73,29.85,10.0,SSE,12.7,23.0,N/A,,Scattered Clouds,160,2013-09-28 13:35:00
8:55 AM,66.2,57.2,73,29.84,10.0,SSE,17.3,25.3,N/A,,Partly Cloudy,160,2013-09-28 13:55:00
9:15 AM,68.0,57.2,68,29.82,10.0,SSE,17.3,25.3,N/A,,Clear,160,2013-09-28 14:15:00
9:35 AM,68.0,57.2,68,29.82,10.0,SSE,16.1,27.6,N/A,,Partly Cloudy,160,2013-09-28 14:35:00
9:55 AM,69.8,59.0,68,29.82,10.0,SSE,16.1,24.2,N/A,,Mostly Cloudy,160,2013-09-28 14:55:00
10:15 AM,68.0,59.0,73,29.82,10.0,SSE,15.0,24.2,N/A,,Overcast,160,2013-09-28 15:15:00
10:35 AM,69.8,59.0,68,29.81,9.0,South,17.3,24.2,N/A,,Mostly Cloudy,170,2013-09-28 15:35:00
10:55 AM,66.2,60.8,83,29.81,8.0,South,8.1,24.2,N/A,Rain,Light Rain,170,2013-09-28 15:55:00
11:15 AM,68.0,60.8,78,29.81,10.0,SSE,12.7,19.6,N/A,,Mostly Cloudy,160,2013-09-28 16:15:00
11:35 AM,69.8,60.8,73,29.80,10.0,South,11.5,20.7,N/A,,Overcast,170,2013-09-28 16:35:00
11:55 AM,69.8,60.8,73,29.80,10.0,South,12.7,20.7,N/A,,Overcast,180,2013-09-28 16:55:00
12:15 PM,71.6,60.8,69,29.80,10.0,South,12.7,23.0,N/A,Rain,Light Rain,190,2013-09-28 17:15:00
12:35 PM,68.0,62.6,83,29.80,3.0,South,12.7,19.6,N/A,Rain,Light Rain,190,2013-09-28 17:35:00
12:55 PM,66.2,62.6,88,29.80,4.0,South,9.2,18.4,0.05,Rain,Light Rain,190,2013-09-28 17:55:00
1:15 PM,66.2,62.6,88,29.80,1.0,South,13.8,23.0,N/A,Rain,Heavy Rain,180,2013-09-28 18:15:00
1:35 PM,66.2,64.4,94,29.79,3.0,South,12.7,21.9,N/A,Rain,Light Rain,180,2013-09-28 18:35:00
1:55 PM,66.2,64.4,94,29.79,5.0,South,12.7,23.0,0.20,,Overcast,180,2013-09-28 18:55:00
2:15 PM,66.2,64.4,94,29.79,3.0,South,15.0,27.6,N/A,,Overcast,180,2013-09-28 19:15:00
2:35 PM,62.6,60.8,94,29.82,1.5,West,16.1,21.9,N/A,Rain,Rain,270,2013-09-28 19:35:00
2:55 PM,59.0,57.2,94,29.84,3.0,West,10.4,17.3,0.05,Rain,Light Rain,270,2013-09-28 19:55:00
3:15 PM,59.0,57.2,94,29.85,1.5,WNW,8.1,15.0,N/A,Rain,Light Rain,300,2013-09-28 20:15:00
3:35 PM,55.4,55.4,100,29.86,3.0,WNW,8.1,16.1,N/A,Rain,Light Rain,290,2013-09-28 20:35:00
3:55 PM,55.4,53.6,94,29.86,6.0,NW,6.9,13.8,0.07,Rain,Light Rain,310,2013-09-28 20:55:00
4:15 PM,55.4,53.6,94,29.86,10.0,WNW,8.1,-,N/A,,Overcast,290,2013-09-28 21:15:00
4:35 PM,55.4,55.4,100,29.88,10.0,Variable,5.8,-,N/A,,Overcast,0,2013-09-28 21:35:00
4:55 PM,55.4,55.4,100,29.89,7.0,Variable,5.8,-,0.01,Rain,Light Rain,0,2013-09-28 21:55:00
5:15 PM,55.4,55.4,100,29.91,10.0,Variable,4.6,-,N/A,,Overcast,0,2013-09-28 22:15:00
5:35 PM,57.2,55.4,94,29.91,10.0,Variable,4.6,-,N/A,,Overcast,0,2013-09-28 22:35:00
5:55 PM,57.2,55.4,94,29.91,10.0,Calm,Calm,-,N/A,,Overcast,0,2013-09-28 22:55:00
6:15 PM,57.2,55.4,94,29.92,10.0,WNW,3.5,-,N/A,,Mostly Cloudy,290,2013-09-28 23:15:00
6:35 PM,57.2,53.6,88,29.92,10.0,Calm,Calm,-,N/A,,Scattered Clouds,0,2013-09-28 23:35:00
6:55 PM,55.4,53.6,94,29.92,10.0,Calm,Calm,-,N/A,,Mostly Cloudy,0,2013-09-28 23:55:00
7:15 PM,57.2,53.6,88,29.93,10.0,Variable,4.6,-,N/A,,Overcast,0,2013-09-29 00:15:00
7:35 PM,55.4,53.6,94,29.93,10.0,Calm,Calm,-,N/A,,Scattered Clouds,0,2013-09-29 00:35:00
7:55 PM,55.4,53.6,94,29.94,10.0,Calm,Calm,-,N/A,,Scattered Clouds,0,2013-09-29 00:55:00
8:15 PM,55.4,53.6,94,29.95,10.0,Calm,Calm,-,N/A,,Scattered Clouds,0,2013-09-29 01:15:00
8:35 PM,53.6,51.8,94,29.95,10.0,Calm,Calm,-,N/A,,Clear,0,2013-09-29 01:35:00
8:55 PM,53.6,51.8,94,29.96,10.0,Calm,Calm,-,N/A,,Clear,0,2013-09-29 01:55:00
9:15 PM,53.6,51.8,94,29.97,10.0,Variable,3.5,-,N/A,,Clear,0,2013-09-29 02:15:00
9:35 PM,53.6,51.8,94,29.98,10.0,Calm,Calm,-,N/A,,Clear,0,2013-09-29 02:35:00
9:55 PM,53.6,51.8,94,29.98,10.0,Calm,Calm,-,N/A,,Clear,0,2013-09-29 02:55:00
10:15 PM,51.8,51.8,100,29.99,10.0,Calm,Calm,-,N/A,,Clear,0,2013-09-29 03:15:00
10:35 PM,51.8,50.0,94,29.99,10.0,Calm,Calm,-,N/A,,Clear,0,2013-09-29 03:35:00
10:55 PM,51.8,50.0,94,30.00,10.0,Calm,Calm,-,N/A,,Clear,0,2013-09-29 03:55:00
11:15 PM,50.0,50.0,100,30.00,10.0,Calm,Calm,-,N/A,,Clear,0,2013-09-29 04:15:00
11:35 PM,50.0,50.0,100,30.00,9.0,West,3.5,-,N/A,,Clear,260,2013-09-29 04:35:00
11:55 PM,50.0,48.2,94,30.00,10.0,Calm,Calm,-,N/A,,Clear,0,2013-09-29 04:55:00